Location: Unspecified
(43.4680°N, 87.1740°E)
Time: 22:57:29
(UTC+00:00)

Tiangong - Pass Details

Date: 30 September 2021
Orbit: 382 x 384 km, 41.5° (Epoch: 20 October)

Event Time Altitude Azimuth Distance (km) Brightness Sun altitude
Exits shadow 23:12:57 18° 256° (WSW) 1,032 2.6 -10.9°
Maximum altitude 23:15:08 60° 179° (S) 439 1.3 -10.5°
Drops below altitude 10° 23:18:15 10° 98° (E) 1,395 5.4 -10.0°
Sets 23:20:20 0° 95° (E) 2,247 7.0 -9.6°
